Time,TemperatureF,DewpointF,PressureIn,WindDirection,WindDirectionDegrees,WindSpeedMPH,WindSpeedGustMPH,Humidity,HourlyPrecipIn,Conditions,Clouds,dailyrainin,SoftwareType,DateUTC
2013-01-02 00:04:00,35.8,11.5,25.24,ESE,112,13.0,-999.0,36,-99.99,,,-99.99,dwt +perl,2013-01-02 08:04:00,
2013-01-02 00:09:00,35.5,11.8,25.24,SE,127,10.0,-999.0,37,-99.99,,,-99.99,dwt +perl,2013-01-02 08:09:00,
2013-01-02 00:14:00,35.6,10.7,25.24,SSE,161,10.0,-999.0,35,-99.99,,,-99.99,dwt +perl,2013-01-02 08:14:00,
2013-01-02 00:19:00,35.7,10.1,25.24,East,92,9.0,-999.0,34,-99.99,,,-99.99,dwt +perl,2013-01-02 08:19:00,
2013-01-02 00:24:00,35.7,10.8,25.24,SE,138,9.0,-999.0,35,-99.99,,,-99.99,dwt +perl,2013-01-02 08:24:00,
2013-01-02 00:29:00,35.6,11.3,25.24,ESE,119,12.0,-999.0,36,-99.99,,,-99.99,dwt +perl,2013-01-02 08:29:00,
2013-01-02 00:34:00,36.0,9.0,25.24,SE,132,14.0,-999.0,32,-99.99,,,-99.99,dwt +perl,2013-01-02 08:34:00,
2013-01-02 00:39:00,36.7,9.6,25.24,ESE,122,14.0,-999.0,32,-99.99,,,-99.99,dwt +perl,2013-01-02 08:39:00,
2013-01-02 00:44:00,37.2,8.6,25.24,ESE,122,9.0,-999.0,30,-99.99,,,-99.99,dwt +perl,2013-01-02 08:44:00,
2013-01-02 00:49:00,37.8,8.4,25.24,SE,137,11.0,-999.0,29,-99.99,,,-99.99,dwt +perl,2013-01-02 08:49:00,
2013-01-02 00:54:00,37.7,9.1,25.24,ESE,122,8.0,-999.0,30,-99.99,,,-99.99,dwt +perl,2013-01-02 08:54:00,
2013-01-02 00:59:00,37.5,9.6,25.23,ESE,122,10.0,-999.0,31,-99.99,,,-99.99,dwt +perl,2013-01-02 08:59:00,
2013-01-02 01:04:00,37.1,9.3,25.23,ESE,121,5.0,-999.0,31,-99.99,,,-99.99,dwt +perl,2013-01-02 09:04:00,
2013-01-02 01:09:00,36.9,9.1,25.24,East,101,10.0,-999.0,31,-99.99,,,-99.99,dwt +perl,2013-01-02 09:09:00,
2013-01-02 01:14:00,36.8,9.7,25.24,ESE,116,4.0,-999.0,32,-99.99,,,-99.99,dwt +perl,2013-01-02 09:14:00,
2013-01-02 01:19:00,36.6,10.2,25.24,ESE,116,4.0,-999.0,33,-99.99,,,-99.99,dwt +perl,2013-01-02 09:19:00,
2013-01-02 01:24:00,36.4,10.1,25.24,ENE,65,11.0,-999.0,33,-99.99,,,-99.99,dwt +perl,2013-01-02 09:24:00,
2013-01-02 01:29:00,36.1,10.5,25.24,ENE,68,4.0,-999.0,34,-99.99,,,-99.99,dwt +perl,2013-01-02 09:29:00,
2013-01-02 01:34:00,36.1,10.5,25.24,East,87,8.0,-999.0,34,-99.99,,,-99.99,dwt +perl,2013-01-02 09:34:00,
2013-01-02 01:39:00,36.2,10.6,25.24,ENE,62,7.0,-999.0,34,-99.99,,,-99.99,dwt +perl,2013-01-02 09:39:00,
2013-01-02 01:44:00,36.4,10.7,25.24,ENE,64,8.0,-999.0,34,-99.99,,,-99.99,dwt +perl,2013-01-02 09:44:00,
2013-01-02 01:49:00,36.8,10.4,25.23,East,81,8.0,-999.0,33,-99.99,,,-99.99,dwt +perl,2013-01-02 09:49:00,
2013-01-02 01:54:00,37.0,10.6,25.23,ENE,61,5.0,-999.0,33,-99.99,,,-99.99,dwt +perl,2013-01-02 09:54:00,
2013-01-02 01:59:00,37.3,10.9,25.23,NE,45,3.0,-999.0,33,-99.99,,,-99.99,dwt +perl,2013-01-02 09:59:00,
2013-01-02 02:04:00,37.1,11.4,25.24,ENE,62,2.0,-999.0,34,-99.99,,,-99.99,dwt +perl,2013-01-02 10:04:00,
2013-01-02 02:09:00,37.1,11.4,25.24,NE,43,5.0,-999.0,34,-99.99,,,-99.99,dwt +perl,2013-01-02 10:09:00,
2013-01-02 02:14:00,36.8,11.7,25.24,ENE,70,5.0,-999.0,35,-99.99,,,-99.99,dwt +perl,2013-01-02 10:14:00,
2013-01-02 02:19:00,37.0,11.9,25.24,NE,54,6.0,-999.0,35,-99.99,,,-99.99,dwt +perl,2013-01-02 10:19:00,
2013-01-02 02:24:00,37.2,10.8,25.24,ENE,58,9.0,-999.0,33,-99.99,,,-99.99,dwt +perl,2013-01-02 10:24:00,
2013-01-02 02:29:00,37.5,11.0,25.24,ENE,73,13.0,-999.0,33,-99.99,,,-99.99,dwt +perl,2013-01-02 10:29:00,
2013-01-02 02:34:00,38.4,10.4,25.24,ENE,64,10.0,-999.0,31,-99.99,,,-99.99,dwt +perl,2013-01-02 10:34:00,
2013-01-02 02:39:00,38.8,10.1,25.23,NE,52,12.0,-999.0,30,-99.99,,,-99.99,dwt +perl,2013-01-02 10:39:00,
2013-01-02 02:44:00,39.0,11.0,25.23,ENE,74,12.0,-999.0,31,-99.99,,,-99.99,dwt +perl,2013-01-02 10:44:00,
2013-01-02 02:49:00,39.1,10.3,25.23,ENE,62,10.0,-999.0,30,-99.99,,,-99.99,dwt +perl,2013-01-02 10:49:00,
2013-01-02 02:54:00,39.3,11.9,25.23,NE,47,7.0,-999.0,32,-99.99,,,-99.99,dwt +perl,2013-01-02 10:54:00,
2013-01-02 02:59:00,38.9,11.6,25.23,ENE,58,8.0,-999.0,32,-99.99,,,-99.99,dwt +perl,2013-01-02 10:59:00,
2013-01-02 03:04:00,38.7,12.1,25.23,ENE,65,12.0,-999.0,33,-99.99,,,-99.99,dwt +perl,2013-01-02 11:04:00,
2013-01-02 03:09:00,38.6,12.0,25.23,ENE,67,11.0,-999.0,33,-99.99,,,-99.99,dwt +perl,2013-01-02 11:09:00,
2013-01-02 03:14:00,38.3,11.7,25.23,ENE,69,12.0,-999.0,33,-99.99,,,-99.99,dwt +perl,2013-01-02 11:14:00,
2013-01-02 03:19:00,38.5,11.9,25.23,ENE,63,8.0,-999.0,33,-99.99,,,-99.99,dwt +perl,2013-01-02 11:19:00,
2013-01-02 03:24:00,38.6,11.3,25.23,East,96,13.0,-999.0,32,-99.99,,,-99.99,dwt +perl,2013-01-02 11:24:00,
2013-01-02 03:29:00,38.4,11.1,25.23,ENE,68,11.0,-999.0,32,-99.99,,,-99.99,dwt +perl,2013-01-02 11:29:00,
2013-01-02 03:34:00,38.7,11.4,25.23,ENE,66,10.0,-999.0,32,-99.99,,,-99.99,dwt +perl,2013-01-02 11:34:00,
2013-01-02 03:39:00,39.3,11.2,25.23,ENE,64,10.0,-999.0,31,-99.99,,,-99.99,dwt +perl,2013-01-02 11:39:00,
2013-01-02 03:44:00,39.5,11.4,25.23,NE,52,11.0,-999.0,31,-99.99,,,-99.99,dwt +perl,2013-01-02 11:44:00,
2013-01-02 03:49:00,39.9,10.2,25.23,ENE,62,9.0,-999.0,29,-99.99,,,-99.99,dwt +perl,2013-01-02 11:49:00,
2013-01-02 03:54:00,40.0,10.3,25.23,NNE,30,10.0,-999.0,29,-99.99,,,-99.99,dwt +perl,2013-01-02 11:54:00,
2013-01-02 03:59:00,40.2,10.5,25.22,ENE,75,12.0,-999.0,29,-99.99,,,-99.99,dwt +perl,2013-01-02 11:59:00,
2013-01-02 04:04:00,40.4,10.7,25.22,NE,52,9.0,-999.0,29,-99.99,,,-99.99,dwt +perl,2013-01-02 12:04:00,
2013-01-02 04:09:00,40.5,10.0,25.22,ENE,64,10.0,-999.0,28,-99.99,,,-99.99,dwt +perl,2013-01-02 12:09:00,
2013-01-02 04:14:00,40.6,10.1,25.21,ENE,61,10.0,-999.0,28,-99.99,,,-99.99,dwt +perl,2013-01-02 12:14:00,
2013-01-02 04:19:00,40.6,10.1,25.21,ENE,67,10.0,-999.0,28,-99.99,,,-99.99,dwt +perl,2013-01-02 12:19:00,
2013-01-02 04:24:00,40.9,9.5,25.21,ENE,68,10.0,-999.0,27,-99.99,,,-99.99,dwt +perl,2013-01-02 12:24:00,
2013-01-02 04:29:00,41.0,9.6,25.21,ENE,63,11.0,-999.0,27,-99.99,,,-99.99,dwt +perl,2013-01-02 12:29:00,
2013-01-02 04:34:00,40.6,9.3,25.21,ENE,62,9.0,-999.0,27,-99.99,,,-99.99,dwt +perl,2013-01-02 12:34:00,
2013-01-02 04:39:00,40.9,8.7,25.21,ENE,65,8.0,-999.0,26,-99.99,,,-99.99,dwt +perl,2013-01-02 12:39:00,
2013-01-02 04:44:00,41.0,7.9,25.21,ENE,62,8.0,-999.0,25,-99.99,,,-99.99,dwt +perl,2013-01-02 12:44:00,
2013-01-02 04:49:00,41.3,7.3,25.21,ENE,73,7.0,-999.0,24,-99.99,,,-99.99,dwt +perl,2013-01-02 12:49:00,
2013-01-02 04:54:00,41.7,7.6,25.21,ENE,70,7.0,-999.0,24,-99.99,,,-99.99,dwt +perl,2013-01-02 12:54:00,
2013-01-02 04:59:00,41.9,6.8,25.21,ENE,77,8.0,-999.0,23,-99.99,,,-99.99,dwt +perl,2013-01-02 12:59:00,
2013-01-02 05:04:00,42.0,6.9,25.21,ENE,69,5.0,-999.0,23,-99.99,,,-99.99,dwt +perl,2013-01-02 13:04:00,
2013-01-02 05:09:00,41.9,6.8,25.21,ENE,72,5.0,-999.0,23,-99.99,,,-99.99,dwt +perl,2013-01-02 13:09:00,
2013-01-02 05:14:00,41.9,6.8,25.21,ESE,102,5.0,-999.0,23,-99.99,,,-99.99,dwt +perl,2013-01-02 13:14:00,
2013-01-02 05:19:00,41.6,7.5,25.21,ENE,60,4.0,-999.0,24,-99.99,,,-99.99,dwt +perl,2013-01-02 13:19:00,
2013-01-02 05:24:00,41.2,8.1,25.21,East,83,5.0,-999.0,25,-99.99,,,-99.99,dwt +perl,2013-01-02 13:24:00,
2013-01-02 05:29:00,41.3,7.3,25.21,ENE,67,5.0,-999.0,24,-99.99,,,-99.99,dwt +perl,2013-01-02 13:29:00,
2013-01-02 05:34:00,41.5,7.4,25.20,ENE,68,5.0,-999.0,24,-99.99,,,-99.99,dwt +perl,2013-01-02 13:34:00,
2013-01-02 05:39:00,41.5,7.4,25.20,ENE,72,8.0,-999.0,24,-99.99,,,-99.99,dwt +perl,2013-01-02 13:39:00,
2013-01-02 05:44:00,41.4,7.3,25.21,ENE,62,8.0,-999.0,24,-99.99,,,-99.99,dwt +perl,2013-01-02 13:44:00,
2013-01-02 05:49:00,41.3,8.2,25.21,ENE,64,3.0,-999.0,25,-99.99,,,-99.99,dwt +perl,2013-01-02 13:49:00,
2013-01-02 05:54:00,41.3,8.2,25.21,ENE,68,7.0,-999.0,25,-99.99,,,-99.99,dwt +perl,2013-01-02 13:54:00,
2013-01-02 05:59:00,41.5,8.3,25.21,ENE,66,7.0,-999.0,25,-99.99,,,-99.99,dwt +perl,2013-01-02 13:59:00,
2013-01-02 06:04:00,41.5,8.3,25.21,ENE,70,7.0,-999.0,25,-99.99,,,-99.99,dwt +perl,2013-01-02 14:04:00,
2013-01-02 06:09:00,41.6,8.4,25.21,East,83,7.0,-999.0,25,-99.99,,,-99.99,dwt +perl,2013-01-02 14:09:00,
2013-01-02 06:14:00,41.5,7.4,25.21,ENE,75,8.0,-999.0,24,-99.99,,,-99.99,dwt +perl,2013-01-02 14:14:00,
2013-01-02 06:19:00,41.5,7.4,25.21,ENE,61,7.0,-999.0,24,-99.99,,,-99.99,dwt +perl,2013-01-02 14:19:00,
2013-01-02 06:24:00,41.4,7.3,25.21,ENE,70,8.0,-999.0,24,-99.99,,,-99.99,dwt +perl,2013-01-02 14:24:00,
2013-01-02 06:29:00,41.4,7.3,25.21,East,87,6.0,-999.0,24,-99.99,,,-99.99,dwt +perl,2013-01-02 14:29:00,
2013-01-02 06:34:00,41.4,7.3,25.21,ENE,71,8.0,-999.0,24,-99.99,,,-99.99,dwt +perl,2013-01-02 14:34:00,
2013-01-02 06:39:00,41.5,7.4,25.21,ENE,76,4.0,-999.0,24,-99.99,,,-99.99,dwt +perl,2013-01-02 14:39:00,
2013-01-02 06:44:00,41.3,7.3,25.21,ENE,68,7.0,-999.0,24,-99.99,,,-99.99,dwt +perl,2013-01-02 14:44:00,
2013-01-02 06:49:00,41.3,7.3,25.21,ENE,64,5.0,-999.0,24,-99.99,,,-99.99,dwt +perl,2013-01-02 14:49:00,
2013-01-02 06:54:00,41.1,7.1,25.21,East,80,6.0,-999.0,24,-99.99,,,-99.99,dwt +perl,2013-01-02 14:54:00,
2013-01-02 06:59:00,41.1,7.1,25.21,ENE,75,5.0,-999.0,24,-99.99,,,-99.99,dwt +perl,2013-01-02 14:59:00,
2013-01-02 07:04:00,41.0,7.0,25.21,East,83,6.0,-999.0,24,-99.99,,,-99.99,dwt +perl,2013-01-02 15:04:00,
2013-01-02 07:09:00,41.1,7.1,25.21,ENE,76,7.0,-999.0,24,-99.99,,,-99.99,dwt +perl,2013-01-02 15:09:00,
2013-01-02 07:14:00,41.1,7.1,25.21,ENE,65,5.0,-999.0,24,-99.99,,,-99.99,dwt +perl,2013-01-02 15:14:00,
2013-01-02 07:19:00,40.9,6.9,25.21,ENE,64,4.0,-999.0,24,-99.99,,,-99.99,dwt +perl,2013-01-02 15:19:00,
2013-01-02 07:24:00,40.9,6.9,25.21,ENE,65,5.0,-999.0,24,-99.99,,,-99.99,dwt +perl,2013-01-02 15:24:00,
2013-01-02 07:29:00,41.0,7.9,25.21,ENE,66,5.0,-999.0,25,-99.99,,,-99.99,dwt +perl,2013-01-02 15:29:00,
2013-01-02 07:34:00,41.1,8.0,25.21,ENE,74,3.0,-999.0,25,-99.99,,,-99.99,dwt +perl,2013-01-02 15:34:00,
2013-01-02 07:39:00,41.4,7.3,25.21,ENE,75,4.0,-999.0,24,-99.99,,,-99.99,dwt +perl,2013-01-02 15:39:00,
2013-01-02 07:44:00,41.7,7.6,25.21,ENE,77,1.0,-999.0,24,-99.99,,,-99.99,dwt +perl,2013-01-02 15:44:00,
2013-01-02 07:49:00,41.8,7.7,25.21,ENE,77,3.0,-999.0,24,-99.99,,,-99.99,dwt +perl,2013-01-02 15:49:00,
2013-01-02 07:54:00,41.9,6.8,25.22,ENE,77,2.0,-999.0,23,-99.99,,,-99.99,dwt +perl,2013-01-02 15:54:00,
2013-01-02 07:59:00,42.3,7.2,25.22,ENE,76,2.0,-999.0,23,-99.99,,,-99.99,dwt +perl,2013-01-02 15:59:00,
2013-01-02 08:04:00,42.6,8.4,25.22,ENE,76,1.0,-999.0,24,-99.99,,,-99.99,dwt +perl,2013-01-02 16:04:00,
2013-01-02 08:09:00,42.8,8.5,25.22,ENE,76,2.0,-999.0,24,-99.99,,,-99.99,dwt +perl,2013-01-02 16:09:00,
2013-01-02 08:14:00,42.9,9.5,25.22,ENE,76,1.0,-999.0,25,-99.99,,,-99.99,dwt +perl,2013-01-02 16:14:00,
2013-01-02 08:19:00,42.7,9.4,25.22,ENE,66,1.0,-999.0,25,-99.99,,,-99.99,dwt +perl,2013-01-02 16:19:00,
2013-01-02 08:24:00,42.7,10.2,25.22,ENE,62,3.0,-999.0,26,-99.99,,,-99.99,dwt +perl,2013-01-02 16:24:00,
2013-01-02 08:29:00,42.6,11.0,25.22,ENE,62,2.0,-999.0,27,-99.99,,,-99.99,dwt +perl,2013-01-02 16:29:00,
2013-01-02 08:34:00,42.8,12.0,25.23,ENE,62,4.0,-999.0,28,-99.99,,,-99.99,dwt +perl,2013-01-02 16:34:00,
2013-01-02 08:39:00,42.9,10.4,25.23,ENE,65,3.0,-999.0,26,-99.99,,,-99.99,dwt +perl,2013-01-02 16:39:00,
2013-01-02 08:44:00,42.7,11.1,25.23,ENE,75,5.0,-999.0,27,-99.99,,,-99.99,dwt +perl,2013-01-02 16:44:00,
2013-01-02 08:49:00,42.4,10.8,25.23,ENE,70,5.0,-999.0,27,-99.99,,,-99.99,dwt +perl,2013-01-02 16:49:00,
2013-01-02 08:54:00,42.1,12.2,25.23,ENE,64,7.0,-999.0,29,-99.99,,,-99.99,dwt +perl,2013-01-02 16:54:00,
2013-01-02 08:59:00,41.8,9.5,25.23,ENE,63,5.0,-999.0,26,-99.99,,,-99.99,dwt +perl,2013-01-02 16:59:00,
2013-01-02 09:04:00,41.8,11.1,25.23,NE,56,4.0,-999.0,28,-99.99,,,-99.99,dwt +perl,2013-01-02 17:04:00,
2013-01-02 09:09:00,41.9,10.4,25.23,NE,52,4.0,-999.0,27,-99.99,,,-99.99,dwt +perl,2013-01-02 17:09:00,
2013-01-02 09:14:00,42.0,11.3,25.23,NE,55,5.0,-999.0,28,-99.99,,,-99.99,dwt +perl,2013-01-02 17:14:00,
2013-01-02 09:19:00,42.1,10.6,25.23,ENE,63,4.0,-999.0,27,-99.99,,,-99.99,dwt +perl,2013-01-02 17:19:00,
2013-01-02 09:24:00,41.9,9.5,25.23,NE,42,3.0,-999.0,26,-99.99,,,-99.99,dwt +perl,2013-01-02 17:24:00,
2013-01-02 09:29:00,42.0,11.3,25.23,NE,52,3.0,-999.0,28,-99.99,,,-99.99,dwt +perl,2013-01-02 17:29:00,
2013-01-02 09:34:00,42.2,12.2,25.23,ENE,62,3.0,-999.0,29,-99.99,,,-99.99,dwt +perl,2013-01-02 17:34:00,
2013-01-02 09:39:00,42.3,12.3,25.23,ENE,60,4.0,-999.0,29,-99.99,,,-99.99,dwt +perl,2013-01-02 17:39:00,
2013-01-02 09:44:00,42.4,10.8,25.23,ENE,57,4.0,-999.0,27,-99.99,,,-99.99,dwt +perl,2013-01-02 17:44:00,
2013-01-02 09:49:00,42.4,10.8,25.24,ENE,66,4.0,-999.0,27,-99.99,,,-99.99,dwt +perl,2013-01-02 17:49:00,
2013-01-02 09:54:00,42.4,9.1,25.23,ENE,64,4.0,-999.0,25,-99.99,,,-99.99,dwt +perl,2013-01-02 17:54:00,
2013-01-02 09:59:00,42.4,8.2,25.24,ENE,64,5.0,-999.0,24,-99.99,,,-99.99,dwt +perl,2013-01-02 17:59:00,
2013-01-02 10:04:00,42.5,8.3,25.24,ENE,65,3.0,-999.0,24,-99.99,,,-99.99,dwt +perl,2013-01-02 18:04:00,
2013-01-02 10:09:00,42.7,10.2,25.24,ENE,62,4.0,-999.0,26,-99.99,,,-99.99,dwt +perl,2013-01-02 18:09:00,
2013-01-02 10:14:00,43.2,13.9,25.24,ENE,60,3.0,-999.0,30,-99.99,,,-99.99,dwt +perl,2013-01-02 18:14:00,
2013-01-02 10:19:00,43.4,12.5,25.24,ENE,58,4.0,-999.0,28,-99.99,,,-99.99,dwt +perl,2013-01-02 18:19:00,
2013-01-02 10:24:00,43.7,13.6,25.25,ENE,57,4.0,-999.0,29,-99.99,,,-99.99,dwt +perl,2013-01-02 18:24:00,
2013-01-02 10:29:00,43.6,13.5,25.24,ENE,59,3.0,-999.0,29,-99.99,,,-99.99,dwt +perl,2013-01-02 18:29:00,
2013-01-02 10:34:00,43.5,11.8,25.24,ENE,62,3.0,-999.0,27,-99.99,,,-99.99,dwt +perl,2013-01-02 18:34:00,
2013-01-02 10:39:00,43.6,15.0,25.24,NE,55,3.0,-999.0,31,-99.99,,,-99.99,dwt +perl,2013-01-02 18:39:00,
2013-01-02 10:44:00,43.8,13.6,25.24,NE,53,4.0,-999.0,29,-99.99,,,-99.99,dwt +perl,2013-01-02 18:44:00,
2013-01-02 10:49:00,43.9,13.7,25.24,ENE,58,3.0,-999.0,29,-99.99,,,-99.99,dwt +perl,2013-01-02 18:49:00,
2013-01-02 10:54:00,44.0,13.8,25.24,ENE,64,4.0,-999.0,29,-99.99,,,-99.99,dwt +perl,2013-01-02 18:54:00,
2013-01-02 10:59:00,44.3,14.1,25.24,ENE,60,3.0,-999.0,29,-99.99,,,-99.99,dwt +perl,2013-01-02 18:59:00,
2013-01-02 11:04:00,44.7,11.9,25.24,ENE,60,4.0,-999.0,26,-99.99,,,-99.99,dwt +perl,2013-01-02 19:04:00,
2013-01-02 11:09:00,44.9,12.1,25.24,ENE,60,3.0,-999.0,26,-99.99,,,-99.99,dwt +perl,2013-01-02 19:09:00,
2013-01-02 11:14:00,45.4,11.7,25.24,ENE,61,2.0,-999.0,25,-99.99,,,-99.99,dwt +perl,2013-01-02 19:14:00,
2013-01-02 11:19:00,45.5,12.6,25.24,ENE,66,2.0,-999.0,26,-99.99,,,-99.99,dwt +perl,2013-01-02 19:19:00,
2013-01-02 11:24:00,45.8,11.1,25.23,ENE,60,3.0,-999.0,24,-99.99,,,-99.99,dwt +perl,2013-01-02 19:24:00,
2013-01-02 11:29:00,46.2,13.2,25.23,ENE,60,0.0,-999.0,26,-99.99,,,-99.99,dwt +perl,2013-01-02 19:29:00,
2013-01-02 11:34:00,46.3,11.5,25.23,ENE,65,4.0,-999.0,24,-99.99,,,-99.99,dwt +perl,2013-01-02 19:34:00,
2013-01-02 11:39:00,46.0,13.1,25.23,ENE,70,3.0,-999.0,26,-99.99,,,-99.99,dwt +perl,2013-01-02 19:39:00,
2013-01-02 11:44:00,45.9,15.5,25.23,NE,56,4.0,-999.0,29,-99.99,,,-99.99,dwt +perl,2013-01-02 19:44:00,
2013-01-02 11:49:00,45.9,14.6,25.23,NE,56,3.0,-999.0,28,-99.99,,,-99.99,dwt +perl,2013-01-02 19:49:00,
2013-01-02 11:54:00,46.0,13.9,25.22,ENE,59,4.0,-999.0,27,-99.99,,,-99.99,dwt +perl,2013-01-02 19:54:00,
2013-01-02 11:59:00,45.9,13.0,25.22,NE,56,3.0,-999.0,26,-99.99,,,-99.99,dwt +perl,2013-01-02 19:59:00,
2013-01-02 12:04:00,46.2,12.3,25.22,ENE,64,3.0,-999.0,25,-99.99,,,-99.99,dwt +perl,2013-01-02 20:04:00,
2013-01-02 12:09:00,45.8,9.1,25.22,ENE,70,2.0,-999.0,22,-99.99,,,-99.99,dwt +perl,2013-01-02 20:09:00,
2013-01-02 12:14:00,46.3,13.3,25.22,ENE,69,2.0,-999.0,26,-99.99,,,-99.99,dwt +perl,2013-01-02 20:14:00,
2013-01-02 12:19:00,46.5,13.5,25.21,ENE,69,2.0,-999.0,26,-99.99,,,-99.99,dwt +perl,2013-01-02 20:19:00,
2013-01-02 12:24:00,46.5,13.5,25.21,ENE,67,4.0,-999.0,26,-99.99,,,-99.99,dwt +perl,2013-01-02 20:24:00,
2013-01-02 12:29:00,46.3,11.5,25.21,ENE,68,3.0,-999.0,24,-99.99,,,-99.99,dwt +perl,2013-01-02 20:29:00,
2013-01-02 12:34:00,46.1,12.3,25.21,ENE,66,2.0,-999.0,25,-99.99,,,-99.99,dwt +perl,2013-01-02 20:34:00,
2013-01-02 12:39:00,46.5,11.7,25.20,ENE,66,2.0,-999.0,24,-99.99,,,-99.99,dwt +perl,2013-01-02 20:39:00,
2013-01-02 12:44:00,47.0,13.9,25.20,ENE,63,2.0,-999.0,26,-99.99,,,-99.99,dwt +perl,2013-01-02 20:44:00,
2013-01-02 12:49:00,47.3,13.3,25.20,ENE,77,2.0,-999.0,25,-99.99,,,-99.99,dwt +perl,2013-01-02 20:49:00,
2013-01-02 12:54:00,47.5,15.2,25.20,ENE,74,4.0,-999.0,27,-99.99,,,-99.99,dwt +perl,2013-01-02 20:54:00,
2013-01-02 12:59:00,46.8,12.9,25.20,ENE,74,1.0,-999.0,25,-99.99,,,-99.99,dwt +perl,2013-01-02 20:59:00,
2013-01-02 13:04:00,46.9,12.9,25.20,ENE,74,3.0,-999.0,25,-99.99,,,-99.99,dwt +perl,2013-01-02 21:04:00,
2013-01-02 13:09:00,46.7,15.4,25.19,ENE,74,0.0,-999.0,28,-99.99,,,-99.99,dwt +perl,2013-01-02 21:09:00,
2013-01-02 13:14:00,46.4,13.4,25.19,ENE,74,3.0,-999.0,26,-99.99,,,-99.99,dwt +perl,2013-01-02 21:14:00,
2013-01-02 13:19:00,46.3,16.6,25.19,ENE,75,1.0,-999.0,30,-99.99,,,-99.99,dwt +perl,2013-01-02 21:19:00,
2013-01-02 13:24:00,47.2,18.1,25.19,ENE,75,0.0,-999.0,31,-99.99,,,-99.99,dwt +perl,2013-01-02 21:24:00,
2013-01-02 13:29:00,48.0,18.1,25.19,East,81,0.0,-999.0,30,-99.99,,,-99.99,dwt +perl,2013-01-02 21:29:00,
2013-01-02 13:34:00,48.4,19.2,25.19,WSW,237,0.0,-999.0,31,-99.99,,,-99.99,dwt +perl,2013-01-02 21:34:00,
2013-01-02 13:39:00,48.9,19.6,25.19,WSW,237,0.0,-999.0,31,-99.99,,,-99.99,dwt +perl,2013-01-02 21:39:00,
2013-01-02 13:44:00,48.9,17.2,25.19,WSW,237,0.0,-999.0,28,-99.99,,,-99.99,dwt +perl,2013-01-02 21:44:00,
2013-01-02 13:49:00,48.6,16.1,25.19,South,183,1.0,-999.0,27,-99.99,,,-99.99,dwt +perl,2013-01-02 21:49:00,
2013-01-02 13:54:00,48.3,16.7,25.19,South,183,0.0,-999.0,28,-99.99,,,-99.99,dwt +perl,2013-01-02 21:54:00,
2013-01-02 13:59:00,48.1,14.9,25.19,South,183,2.0,-999.0,26,-99.99,,,-99.99,dwt +perl,2013-01-02 21:59:00,
2013-01-02 14:04:00,47.7,18.6,25.18,South,183,0.0,-999.0,31,-99.99,,,-99.99,dwt +perl,2013-01-02 22:04:00,
2013-01-02 14:09:00,47.9,20.2,25.19,South,183,0.0,-999.0,33,-99.99,,,-99.99,dwt +perl,2013-01-02 22:09:00,
2013-01-02 14:14:00,48.2,20.5,25.19,SSW,195,3.0,-999.0,33,-99.99,,,-99.99,dwt +perl,2013-01-02 22:14:00,
2013-01-02 14:19:00,48.2,19.0,25.19,SSW,195,0.0,-999.0,31,-99.99,,,-99.99,dwt +perl,2013-01-02 22:19:00,
2013-01-02 14:24:00,48.2,16.6,25.19,SSW,195,1.0,-999.0,28,-99.99,,,-99.99,dwt +perl,2013-01-02 22:24:00,
2013-01-02 14:29:00,47.8,16.3,25.18,SSW,195,2.0,-999.0,28,-99.99,,,-99.99,dwt +perl,2013-01-02 22:29:00,
2013-01-02 14:34:00,47.5,17.6,25.18,SSW,195,0.0,-999.0,30,-99.99,,,-99.99,dwt +perl,2013-01-02 22:34:00,
2013-01-02 14:39:00,46.7,18.4,25.18,SSW,195,0.0,-999.0,32,-99.99,,,-99.99,dwt +perl,2013-01-02 22:39:00,
2013-01-02 14:44:00,46.3,17.3,25.18,SSW,195,0.0,-999.0,31,-99.99,,,-99.99,dwt +perl,2013-01-02 22:44:00,
2013-01-02 14:49:00,46.0,18.5,25.18,SSW,195,0.0,-999.0,33,-99.99,,,-99.99,dwt +perl,2013-01-02 22:49:00,
2013-01-02 14:54:00,45.8,18.4,25.18,SSW,195,0.0,-999.0,33,-99.99,,,-99.99,dwt +perl,2013-01-02 22:54:00,
2013-01-02 14:59:00,45.6,18.2,25.18,SSW,195,1.0,-999.0,33,-99.99,,,-99.99,dwt +perl,2013-01-02 22:59:00,
2013-01-02 15:04:00,45.2,19.2,25.17,SSW,195,0.0,-999.0,35,-99.99,,,-99.99,dwt +perl,2013-01-02 23:04:00,
2013-01-02 15:09:00,44.9,18.2,25.17,SSW,195,1.0,-999.0,34,-99.99,,,-99.99,dwt +perl,2013-01-02 23:09:00,
2013-01-02 15:14:00,44.7,18.1,25.17,SSW,195,1.0,-999.0,34,-99.99,,,-99.99,dwt +perl,2013-01-02 23:14:00,
2013-01-02 15:19:00,44.2,17.6,25.17,SSE,162,4.0,-999.0,34,-99.99,,,-99.99,dwt +perl,2013-01-02 23:19:00,
2013-01-02 15:24:00,43.7,17.2,25.17,SSE,152,3.0,-999.0,34,-99.99,,,-99.99,dwt +perl,2013-01-02 23:24:00,
2013-01-02 15:29:00,43.8,17.3,25.17,SSE,152,2.0,-999.0,34,-99.99,,,-99.99,dwt +perl,2013-01-02 23:29:00,
2013-01-02 15:34:00,43.7,17.2,25.17,SSE,152,3.0,-999.0,34,-99.99,,,-99.99,dwt +perl,2013-01-02 23:34:00,
2013-01-02 15:39:00,43.4,16.9,25.17,SSE,152,2.0,-999.0,34,-99.99,,,-99.99,dwt +perl,2013-01-02 23:39:00,
2013-01-02 15:44:00,43.4,17.6,25.17,SSE,152,2.0,-999.0,35,-99.99,,,-99.99,dwt +perl,2013-01-02 23:44:00,
2013-01-02 15:49:00,43.6,17.8,25.17,SSE,152,2.0,-999.0,35,-99.99,,,-99.99,dwt +perl,2013-01-02 23:49:00,
2013-01-02 15:54:00,43.9,18.0,25.17,SSE,152,3.0,-999.0,35,-99.99,,,-99.99,dwt +perl,2013-01-02 23:54:00,
2013-01-02 15:59:00,44.0,17.5,25.17,SSE,152,4.0,-999.0,34,-99.99,,,-99.99,dwt +perl,2013-01-02 23:59:00,
2013-01-02 16:04:00,44.0,16.8,25.17,SSE,152,2.0,-999.0,33,-99.99,,,-99.99,dwt +perl,2013-01-03 00:04:00,
2013-01-02 16:09:00,43.7,15.1,25.17,SSE,152,3.0,-999.0,31,-99.99,,,-99.99,dwt +perl,2013-01-03 00:09:00,
2013-01-02 16:14:00,43.5,15.6,25.17,SSE,152,4.0,-999.0,32,-99.99,,,-99.99,dwt +perl,2013-01-03 00:14:00,
2013-01-02 16:19:00,43.4,13.3,25.16,SSE,152,3.0,-999.0,29,-99.99,,,-99.99,dwt +perl,2013-01-03 00:19:00,
2013-01-02 16:24:00,43.6,13.5,25.16,SSE,152,2.0,-999.0,29,-99.99,,,-99.99,dwt +perl,2013-01-03 00:24:00,
2013-01-02 16:29:00,43.8,12.0,25.16,SSE,152,2.0,-999.0,27,-99.99,,,-99.99,dwt +perl,2013-01-03 00:29:00,
2013-01-02 16:34:00,44.0,11.3,25.16,SSE,152,3.0,-999.0,26,-99.99,,,-99.99,dwt +perl,2013-01-03 00:34:00,
2013-01-02 16:39:00,44.0,12.2,25.16,SSE,152,3.0,-999.0,27,-99.99,,,-99.99,dwt +perl,2013-01-03 00:39:00,
2013-01-02 16:44:00,44.1,12.3,25.16,SSE,152,3.0,-999.0,27,-99.99,,,-99.99,dwt +perl,2013-01-03 00:44:00,
2013-01-02 16:49:00,44.1,12.3,25.15,SSE,152,3.0,-999.0,27,-99.99,,,-99.99,dwt +perl,2013-01-03 00:49:00,
2013-01-02 16:54:00,43.6,13.5,25.15,ENE,76,4.0,-999.0,29,-99.99,,,-99.99,dwt +perl,2013-01-03 00:54:00,
2013-01-02 16:59:00,43.0,13.7,25.15,ENE,74,3.0,-999.0,30,-99.99,,,-99.99,dwt +perl,2013-01-03 00:59:00,
2013-01-02 17:04:00,42.6,14.8,25.15,ENE,73,5.0,-999.0,32,-99.99,,,-99.99,dwt +perl,2013-01-03 01:04:00,
2013-01-02 17:09:00,42.3,15.3,25.15,ENE,73,4.0,-999.0,33,-99.99,,,-99.99,dwt +perl,2013-01-03 01:09:00,
2013-01-02 17:14:00,42.0,15.0,25.16,ENE,73,7.0,-999.0,33,-99.99,,,-99.99,dwt +perl,2013-01-03 01:14:00,
2013-01-02 17:19:00,41.8,14.8,25.15,ENE,72,4.0,-999.0,33,-99.99,,,-99.99,dwt +perl,2013-01-03 01:19:00,
2013-01-02 17:24:00,41.7,14.7,25.15,ENE,71,5.0,-999.0,33,-99.99,,,-99.99,dwt +perl,2013-01-03 01:24:00,
2013-01-02 17:29:00,41.4,14.5,25.16,ENE,71,4.0,-999.0,33,-99.99,,,-99.99,dwt +perl,2013-01-03 01:29:00,
2013-01-02 17:34:00,41.3,14.4,25.16,ENE,71,5.0,-999.0,33,-99.99,,,-99.99,dwt +perl,2013-01-03 01:34:00,
2013-01-02 17:39:00,41.9,8.7,25.16,ENE,70,5.0,-999.0,25,-99.99,,,-99.99,dwt +perl,2013-01-03 01:39:00,
2013-01-02 17:44:00,42.4,6.3,25.16,ENE,71,5.0,-999.0,22,-99.99,,,-99.99,dwt +perl,2013-01-03 01:44:00,
2013-01-02 17:49:00,42.7,5.5,25.16,ENE,70,4.0,-999.0,21,-99.99,,,-99.99,dwt +perl,2013-01-03 01:49:00,
2013-01-02 17:54:00,42.9,5.7,25.16,ENE,70,5.0,-999.0,21,-99.99,,,-99.99,dwt +perl,2013-01-03 01:54:00,
2013-01-02 17:59:00,43.0,5.8,25.16,ENE,70,5.0,-999.0,21,-99.99,,,-99.99,dwt +perl,2013-01-03 01:59:00,
2013-01-02 18:04:00,43.0,5.8,25.16,ENE,69,8.0,-999.0,21,-99.99,,,-99.99,dwt +perl,2013-01-03 02:04:00,
2013-01-02 18:09:00,43.0,5.8,25.16,ENE,67,7.0,-999.0,21,-99.99,,,-99.99,dwt +perl,2013-01-03 02:09:00,
2013-01-02 18:14:00,42.9,6.7,25.16,ENE,69,7.0,-999.0,22,-99.99,,,-99.99,dwt +perl,2013-01-03 02:14:00,
2013-01-02 18:19:00,42.3,11.5,25.16,ENE,62,7.0,-999.0,28,-99.99,,,-99.99,dwt +perl,2013-01-03 02:19:00,
2013-01-02 18:24:00,41.9,10.4,25.16,ENE,64,7.0,-999.0,27,-99.99,,,-99.99,dwt +perl,2013-01-03 02:24:00,
2013-01-02 18:29:00,41.9,8.7,25.16,ENE,65,5.0,-999.0,25,-99.99,,,-99.99,dwt +perl,2013-01-03 02:29:00,
2013-01-02 18:34:00,42.1,7.0,25.16,ENE,66,8.0,-999.0,23,-99.99,,,-99.99,dwt +perl,2013-01-03 02:34:00,
2013-01-02 18:39:00,42.5,7.3,25.16,ENE,65,7.0,-999.0,23,-99.99,,,-99.99,dwt +perl,2013-01-03 02:39:00,
2013-01-02 18:44:00,42.7,7.5,25.16,ENE,67,5.0,-999.0,23,-99.99,,,-99.99,dwt +perl,2013-01-03 02:44:00,
2013-01-02 18:49:00,42.6,7.4,25.17,ENE,71,8.0,-999.0,23,-99.99,,,-99.99,dwt +perl,2013-01-03 02:49:00,
2013-01-02 18:54:00,42.4,8.2,25.16,ENE,64,5.0,-999.0,24,-99.99,,,-99.99,dwt +perl,2013-01-03 02:54:00,
2013-01-02 18:59:00,42.4,8.2,25.16,ENE,67,4.0,-999.0,24,-99.99,,,-99.99,dwt +perl,2013-01-03 02:59:00,
2013-01-02 19:04:00,42.3,8.1,25.16,ENE,66,5.0,-999.0,24,-99.99,,,-99.99,dwt +perl,2013-01-03 03:04:00,
2013-01-02 19:09:00,42.4,7.3,25.16,ENE,69,5.0,-999.0,23,-99.99,,,-99.99,dwt +perl,2013-01-03 03:09:00,
2013-01-02 19:14:00,42.4,7.3,25.17,ENE,66,5.0,-999.0,23,-99.99,,,-99.99,dwt +perl,2013-01-03 03:14:00,
2013-01-02 19:19:00,42.5,6.4,25.17,ENE,66,4.0,-999.0,22,-99.99,,,-99.99,dwt +perl,2013-01-03 03:19:00,
2013-01-02 19:24:00,42.5,6.4,25.16,ENE,63,5.0,-999.0,22,-99.99,,,-99.99,dwt +perl,2013-01-03 03:24:00,
2013-01-02 19:29:00,42.5,6.4,25.17,ENE,58,3.0,-999.0,22,-99.99,,,-99.99,dwt +perl,2013-01-03 03:29:00,
2013-01-02 19:34:00,42.6,6.4,25.16,ENE,66,5.0,-999.0,22,-99.99,,,-99.99,dwt +perl,2013-01-03 03:34:00,
2013-01-02 19:44:00,42.5,6.4,25.17,ENE,68,7.0,-999.0,22,-99.99,,,-99.99,dwt +perl,2013-01-03 03:44:00,
2013-01-02 19:49:00,42.5,6.4,25.16,ENE,67,2.0,-999.0,22,-99.99,,,-99.99,dwt +perl,2013-01-03 03:49:00,
2013-01-02 19:54:00,42.5,6.4,25.16,ENE,67,3.0,-999.0,22,-99.99,,,-99.99,dwt +perl,2013-01-03 03:54:00,
2013-01-02 19:59:00,42.5,5.3,25.17,ENE,67,3.0,-999.0,21,-99.99,,,-99.99,dwt +perl,2013-01-03 03:59:00,
2013-01-02 20:04:00,42.8,5.6,25.17,ENE,67,4.0,-999.0,21,-99.99,,,-99.99,dwt +perl,2013-01-03 04:04:00,
2013-01-02 20:09:00,42.9,5.7,25.17,ENE,68,4.0,-999.0,21,-99.99,,,-99.99,dwt +perl,2013-01-03 04:09:00,
2013-01-02 20:14:00,42.9,4.6,25.17,ENE,68,4.0,-999.0,20,-99.99,,,-99.99,dwt +perl,2013-01-03 04:14:00,
2013-01-02 20:19:00,43.0,4.7,25.17,ENE,73,4.0,-999.0,20,-99.99,,,-99.99,dwt +perl,2013-01-03 04:19:00,
2013-01-02 20:24:00,43.1,4.8,25.16,ENE,68,4.0,-999.0,20,-99.99,,,-99.99,dwt +perl,2013-01-03 04:24:00,
2013-01-02 20:29:00,43.0,4.7,25.16,ENE,70,4.0,-999.0,20,-99.99,,,-99.99,dwt +perl,2013-01-03 04:29:00,
2013-01-02 20:34:00,43.1,4.8,25.16,ENE,72,2.0,-999.0,20,-99.99,,,-99.99,dwt +perl,2013-01-03 04:34:00,
2013-01-02 20:39:00,43.3,3.8,25.16,ENE,72,2.0,-999.0,19,-99.99,,,-99.99,dwt +perl,2013-01-03 04:39:00,
2013-01-02 20:44:00,43.4,5.0,25.16,ENE,72,1.0,-999.0,20,-99.99,,,-99.99,dwt +perl,2013-01-03 04:44:00,
2013-01-02 20:49:00,43.4,3.9,25.16,ENE,75,2.0,-999.0,19,-99.99,,,-99.99,dwt +perl,2013-01-03 04:49:00,
2013-01-02 20:54:00,43.3,5.0,25.16,ENE,74,2.0,-999.0,20,-99.99,,,-99.99,dwt +perl,2013-01-03 04:54:00,
2013-01-02 20:59:00,43.1,3.7,25.16,ENE,74,2.0,-999.0,19,-99.99,,,-99.99,dwt +perl,2013-01-03 04:59:00,
2013-01-02 21:04:00,43.2,3.8,25.16,ENE,75,2.0,-999.0,19,-99.99,,,-99.99,dwt +perl,2013-01-03 05:04:00,
2013-01-02 21:09:00,43.3,3.8,25.16,ENE,75,1.0,-999.0,19,-99.99,,,-99.99,dwt +perl,2013-01-03 05:09:00,
2013-01-02 21:14:00,43.4,3.9,25.16,ENE,75,2.0,-999.0,19,-99.99,,,-99.99,dwt +perl,2013-01-03 05:14:00,
2013-01-02 21:19:00,43.5,4.0,25.16,ENE,75,2.0,-999.0,19,-99.99,,,-99.99,dwt +perl,2013-01-03 05:19:00,
2013-01-02 21:24:00,43.7,4.2,25.16,ENE,75,2.0,-999.0,19,-99.99,,,-99.99,dwt +perl,2013-01-03 05:24:00,
2013-01-02 21:29:00,43.7,4.2,25.16,ENE,75,3.0,-999.0,19,-99.99,,,-99.99,dwt +perl,2013-01-03 05:29:00,
2013-01-02 21:34:00,43.6,4.1,25.16,ENE,75,2.0,-999.0,19,-99.99,,,-99.99,dwt +perl,2013-01-03 05:34:00,
2013-01-02 21:39:00,43.6,4.1,25.16,ENE,76,3.0,-999.0,19,-99.99,,,-99.99,dwt +perl,2013-01-03 05:39:00,
2013-01-02 21:44:00,43.4,3.9,25.16,ENE,76,1.0,-999.0,19,-99.99,,,-99.99,dwt +perl,2013-01-03 05:44:00,
2013-01-02 21:49:00,43.3,3.8,25.16,ENE,76,3.0,-999.0,19,-99.99,,,-99.99,dwt +perl,2013-01-03 05:49:00,
2013-01-02 21:54:00,43.1,3.7,25.16,ENE,73,2.0,-999.0,19,-99.99,,,-99.99,dwt +perl,2013-01-03 05:54:00,
2013-01-02 21:59:00,43.2,3.8,25.16,ENE,73,3.0,-999.0,19,-99.99,,,-99.99,dwt +perl,2013-01-03 05:59:00,
2013-01-02 22:04:00,43.4,3.9,25.16,ENE,73,2.0,-999.0,19,-99.99,,,-99.99,dwt +perl,2013-01-03 06:04:00,
2013-01-02 22:09:00,43.5,4.0,25.16,ENE,73,2.0,-999.0,19,-99.99,,,-99.99,dwt +perl,2013-01-03 06:09:00,
2013-01-02 22:14:00,43.6,2.9,25.16,ENE,73,1.0,-999.0,18,-99.99,,,-99.99,dwt +perl,2013-01-03 06:14:00,
2013-01-02 22:19:00,43.6,4.1,25.16,ENE,73,1.0,-999.0,19,-99.99,,,-99.99,dwt +perl,2013-01-03 06:19:00,
2013-01-02 22:24:00,43.6,4.1,25.16,ENE,74,2.0,-999.0,19,-99.99,,,-99.99,dwt +perl,2013-01-03 06:24:00,
2013-01-02 22:29:00,43.6,4.1,25.16,SE,128,4.0,-999.0,19,-99.99,,,-99.99,dwt +perl,2013-01-03 06:29:00,
2013-01-02 22:34:00,43.8,4.3,25.16,South,175,3.0,-999.0,19,-99.99,,,-99.99,dwt +perl,2013-01-03 06:34:00,
2013-01-02 22:39:00,44.1,4.5,25.16,South,176,2.0,-999.0,19,-99.99,,,-99.99,dwt +perl,2013-01-03 06:39:00,
2013-01-02 22:44:00,44.2,4.6,25.16,South,176,1.0,-999.0,19,-99.99,,,-99.99,dwt +perl,2013-01-03 06:44:00,
2013-01-02 22:49:00,44.1,3.3,25.16,South,176,2.0,-999.0,18,-99.99,,,-99.99,dwt +perl,2013-01-03 06:49:00,
2013-01-02 22:54:00,43.9,4.3,25.16,South,176,3.0,-999.0,19,-99.99,,,-99.99,dwt +perl,2013-01-03 06:54:00,
2013-01-02 22:59:00,43.9,4.3,25.16,South,176,0.0,-999.0,19,-99.99,,,-99.99,dwt +perl,2013-01-03 06:59:00,
2013-01-02 23:04:00,43.6,4.1,25.16,South,176,1.0,-999.0,19,-99.99,,,-99.99,dwt +perl,2013-01-03 07:04:00,
2013-01-02 23:09:00,43.5,4.0,25.16,South,176,1.0,-999.0,19,-99.99,,,-99.99,dwt +perl,2013-01-03 07:09:00,
2013-01-02 23:14:00,43.8,5.4,25.16,SSW,212,3.0,-999.0,20,-99.99,,,-99.99,dwt +perl,2013-01-03 07:14:00,
2013-01-02 23:19:00,44.0,5.5,25.16,SSW,210,4.0,-999.0,20,-99.99,,,-99.99,dwt +perl,2013-01-03 07:19:00,
2013-01-02 23:24:00,43.8,6.4,25.16,SW,216,3.0,-999.0,21,-99.99,,,-99.99,dwt +perl,2013-01-03 07:24:00,
2013-01-02 23:29:00,43.5,6.2,25.16,SW,221,4.0,-999.0,21,-99.99,,,-99.99,dwt +perl,2013-01-03 07:29:00,
2013-01-02 23:34:00,43.4,6.1,25.15,SW,226,5.0,-999.0,21,-99.99,,,-99.99,dwt +perl,2013-01-03 07:34:00,
2013-01-02 23:39:00,43.8,5.4,25.15,SW,233,7.0,-999.0,20,-99.99,,,-99.99,dwt +perl,2013-01-03 07:39:00,
2013-01-02 23:44:00,43.8,5.4,25.15,SW,234,5.0,-999.0,20,-99.99,,,-99.99,dwt +perl,2013-01-03 07:44:00,
2013-01-02 23:49:00,44.1,4.5,25.15,SW,234,5.0,-999.0,19,-99.99,,,-99.99,dwt +perl,2013-01-03 07:49:00,
2013-01-02 23:54:00,44.3,4.7,25.15,SW,235,8.0,-999.0,19,-99.99,,,-99.99,dwt +perl,2013-01-03 07:54:00,
2013-01-02 23:59:00,44.7,5.0,25.15,SW,235,9.0,-999.0,19,-99.99,,,-99.99,dwt +perl,2013-01-03 07:59:00,